Time,TemperatureF,DewpointF,PressureIn,WindDirection,WindDirectionDegrees,WindSpeedMPH,WindSpeedGustMPH,Humidity,HourlyPrecipIn,Conditions,Clouds,dailyrainin,SoftwareType,DateUTC
2013-08-02 00:00:00,59.5,54.0,30.20,SE,124,0.0,1.0,83,0.00,,,0.00,weatherlink.com 1.10,2013-08-02 07:00:00,
2013-08-02 00:14:00,59.3,54.0,30.20,SE,124,0.0,1.0,83,0.00,,,0.00,weatherlink.com 1.10,2013-08-02 07:14:00,
2013-08-02 00:29:00,59.1,54.0,30.20,West,270,0.0,1.0,83,0.00,,,0.00,weatherlink.com 1.10,2013-08-02 07:29:00,
2013-08-02 00:44:00,59.0,54.0,30.20,ESE,108,0.0,1.0,83,0.00,,,0.00,weatherlink.com 1.10,2013-08-02 07:44:00,
2013-08-02 00:59:00,58.3,54.0,30.21,ESE,108,0.0,0.0,84,0.00,,,0.00,weatherlink.com 1.10,2013-08-02 07:59:00,
2013-08-02 01:14:00,57.1,53.0,30.21,ESE,108,0.0,0.0,86,0.00,,,0.00,weatherlink.com 1.10,2013-08-02 08:14:00,
2013-08-02 01:29:00,55.7,53.0,30.21,ESE,107,0.0,0.0,89,0.00,,,0.00,weatherlink.com 1.10,2013-08-02 08:29:00,
2013-08-02 01:44:00,56.2,53.0,30.21,ESE,108,0.0,0.0,90,0.00,,,0.00,weatherlink.com 1.10,2013-08-02 08:44:00,
2013-08-02 01:59:00,56.7,54.0,30.21,ESE,108,0.0,0.0,89,0.00,,,0.00,weatherlink.com 1.10,2013-08-02 08:59:00,
2013-08-02 02:14:00,56.7,54.0,30.22,ESE,107,0.0,0.0,89,0.00,,,0.00,weatherlink.com 1.10,2013-08-02 09:14:00,
2013-08-02 02:29:00,57.1,54.0,30.21,ESE,108,0.0,1.0,89,0.00,,,0.00,weatherlink.com 1.10,2013-08-02 09:29:00,
2013-08-02 02:44:00,57.2,54.0,30.21,ESE,108,0.0,0.0,88,0.00,,,0.00,weatherlink.com 1.10,2013-08-02 09:44:00,
2013-08-02 02:59:00,57.1,54.0,30.21,ESE,107,0.0,0.0,88,0.00,,,0.00,weatherlink.com 1.10,2013-08-02 09:59:00,
2013-08-02 03:14:00,57.3,54.0,30.21,ESE,105,0.0,1.0,87,0.00,,,0.00,weatherlink.com 1.10,2013-08-02 10:14:00,
2013-08-02 03:29:00,57.3,54.0,30.21,ESE,108,0.0,0.0,87,0.00,,,0.00,weatherlink.com 1.10,2013-08-02 10:29:00,
2013-08-02 03:44:00,57.3,54.0,30.21,West,266,0.0,1.0,87,0.00,,,0.00,weatherlink.com 1.10,2013-08-02 10:44:00,
2013-08-02 03:59:00,57.1,54.0,30.21,South,187,0.0,1.0,88,0.00,,,0.00,weatherlink.com 1.10,2013-08-02 10:59:00,
2013-08-02 04:14:00,57.0,54.0,30.21,SSW,197,0.0,0.0,88,0.00,,,0.00,weatherlink.com 1.10,2013-08-02 11:14:00,
2013-08-02 04:29:00,56.9,53.0,30.20,SSE,158,0.0,0.0,88,0.00,,,0.00,weatherlink.com 1.10,2013-08-02 11:29:00,
2013-08-02 04:44:00,57.0,54.0,30.20,SSE,158,0.0,1.0,88,0.00,,,0.00,weatherlink.com 1.10,2013-08-02 11:44:00,
2013-08-02 04:59:00,57.1,53.0,30.20,ESE,121,0.0,2.0,87,0.00,,,0.00,weatherlink.com 1.10,2013-08-02 11:59:00,
2013-08-02 05:14:00,57.0,53.0,30.20,SE,124,0.0,1.0,87,0.00,,,0.00,weatherlink.com 1.10,2013-08-02 12:14:00,
2013-08-02 05:29:00,56.8,53.0,30.20,ESE,115,0.0,1.0,87,0.00,,,0.00,weatherlink.com 1.10,2013-08-02 12:29:00,
2013-08-02 05:44:00,56.7,53.0,30.20,ESE,115,0.0,0.0,87,0.00,,,0.00,weatherlink.com 1.10,2013-08-02 12:44:00,
2013-08-02 05:59:00,56.6,53.0,30.21,ESE,116,0.0,0.0,88,0.00,,,0.00,weatherlink.com 1.10,2013-08-02 12:59:00,
2013-08-02 06:14:00,56.5,53.0,30.21,ESE,116,0.0,0.0,88,0.00,,,0.00,weatherlink.com 1.10,2013-08-02 13:14:00,
2013-08-02 06:29:00,56.6,53.0,30.20,ESE,115,0.0,1.0,88,0.00,,,0.00,weatherlink.com 1.10,2013-08-02 13:29:00,
2013-08-02 06:44:00,56.7,53.0,30.21,SSW,205,0.0,1.0,88,0.00,,,0.00,weatherlink.com 1.10,2013-08-02 13:44:00,
2013-08-02 06:59:00,57.0,53.0,30.21,SE,130,0.0,1.0,87,0.00,,,0.00,weatherlink.com 1.10,2013-08-02 13:59:00,
2013-08-02 07:14:00,57.2,53.0,30.22,West,266,0.0,1.0,87,0.00,,,0.00,weatherlink.com 1.10,2013-08-02 14:14:00,
2013-08-02 07:29:00,57.6,54.0,30.22,SW,219,1.0,1.0,86,0.00,,,0.00,weatherlink.com 1.10,2013-08-02 14:29:00,
2013-08-02 07:44:00,57.6,54.0,30.23,ESE,116,0.0,2.0,86,0.00,,,0.00,weatherlink.com 1.10,2013-08-02 14:44:00,
2013-08-02 07:59:00,58.0,54.0,30.23,SW,216,0.0,1.0,85,0.00,,,0.00,weatherlink.com 1.10,2013-08-02 14:59:00,
2013-08-02 08:14:00,58.6,54.0,30.23,SE,135,0.0,1.0,84,0.00,,,0.00,weatherlink.com 1.10,2013-08-02 15:14:00,
2013-08-02 08:29:00,58.8,54.0,30.23,ESE,123,1.0,2.0,84,0.00,,,0.00,weatherlink.com 1.10,2013-08-02 15:29:00,
2013-08-02 08:44:00,59.6,54.0,30.23,WNW,291,1.0,1.0,81,0.00,,,0.00,weatherlink.com 1.10,2013-08-02 15:44:00,
2013-08-02 09:00:00,60.3,54.0,30.24,West,278,0.0,2.0,80,0.00,,,0.00,weatherlink.com 1.10,2013-08-02 16:00:00,
2013-08-02 09:15:00,60.7,55.0,30.24,WSW,239,0.0,2.0,80,0.00,,,0.00,weatherlink.com 1.10,2013-08-02 16:15:00,
2013-08-02 09:30:00,61.6,54.0,30.23,SSW,210,0.0,1.0,77,0.00,,,0.00,weatherlink.com 1.10,2013-08-02 16:30:00,
2013-08-02 09:45:00,63.3,55.0,30.23,SSE,150,0.0,2.0,73,0.00,,,0.00,weatherlink.com 1.10,2013-08-02 16:45:00,
2013-08-02 10:00:00,63.9,54.0,30.23,South,174,0.0,3.0,71,0.00,,,0.00,weatherlink.com 1.10,2013-08-02 17:00:00,
2013-08-02 10:15:00,65.1,53.0,30.23,WNW,292,0.0,3.0,66,0.00,,,0.00,weatherlink.com 1.10,2013-08-02 17:15:00,
2013-08-02 10:30:00,67.1,55.0,30.22,East,89,1.0,2.0,66,0.00,,,0.00,weatherlink.com 1.10,2013-08-02 17:30:00,
2013-08-02 10:45:00,68.2,53.0,30.22,ESE,116,0.0,3.0,58,0.00,,,0.00,weatherlink.com 1.10,2013-08-02 17:45:00,
2013-08-02 11:00:00,68.5,53.0,30.22,NE,39,0.0,2.0,58,0.00,,,0.00,weatherlink.com 1.10,2013-08-02 18:00:00,
2013-08-02 11:15:00,68.1,54.0,30.21,ESE,113,0.0,3.0,60,0.00,,,0.00,weatherlink.com 1.10,2013-08-02 18:15:00,
2013-08-02 11:30:00,68.6,53.0,30.21,SE,133,0.0,2.0,57,0.00,,,0.00,weatherlink.com 1.10,2013-08-02 18:30:00,
2013-08-02 11:45:00,68.4,52.0,30.21,ESE,119,1.0,2.0,56,0.00,,,0.00,weatherlink.com 1.10,2013-08-02 18:45:00,
2013-08-02 12:00:00,69.8,53.0,30.21,NW,316,5.0,5.0,55,0.00,,,0.00,weatherlink.com 1.10,2013-08-02 19:00:00,
2013-08-02 12:15:00,71.0,52.0,30.20,WNW,285,0.0,3.0,52,0.00,,,0.00,weatherlink.com 1.10,2013-08-02 19:15:00,
2013-08-02 12:30:00,70.1,53.0,30.20,NW,318,2.0,4.0,54,0.00,,,0.00,weatherlink.com 1.10,2013-08-02 19:30:00,
2013-08-02 12:45:00,68.9,53.0,30.20,ENE,71,2.0,5.0,57,0.00,,,0.00,weatherlink.com 1.10,2013-08-02 19:45:00,
2013-08-02 13:00:00,70.4,53.0,30.20,NW,307,0.0,4.0,55,0.00,,,0.00,weatherlink.com 1.10,2013-08-02 20:00:00,
2013-08-02 13:15:00,72.4,54.0,30.20,South,173,1.0,4.0,52,0.00,,,0.00,weatherlink.com 1.10,2013-08-02 20:15:00,
2013-08-02 13:30:00,72.8,53.0,30.19,NNE,23,3.0,6.0,50,0.00,,,0.00,weatherlink.com 1.10,2013-08-02 20:30:00,
2013-08-02 13:45:00,71.2,53.0,30.19,ENE,63,3.0,6.0,52,0.00,,,0.00,weatherlink.com 1.10,2013-08-02 20:45:00,
2013-08-02 14:00:00,72.2,53.0,30.19,NE,43,3.0,4.0,52,0.00,,,0.00,weatherlink.com 1.10,2013-08-02 21:00:00,
2013-08-02 14:15:00,72.9,54.0,30.19,WSW,252,1.0,7.0,51,0.00,,,0.00,weatherlink.com 1.10,2013-08-02 21:15:00,
2013-08-02 14:30:00,74.0,54.0,30.19,NW,320,1.0,5.0,49,0.00,,,0.00,weatherlink.com 1.10,2013-08-02 21:30:00,
2013-08-02 14:45:00,73.8,54.0,30.19,NNW,337,1.0,7.0,50,0.00,,,0.00,weatherlink.com 1.10,2013-08-02 21:45:00,
2013-08-02 15:00:00,75.4,54.0,30.18,NNE,12,3.0,4.0,48,0.00,,,0.00,weatherlink.com 1.10,2013-08-02 22:00:00,
2013-08-02 15:15:00,74.0,54.0,30.18,NNW,343,1.0,8.0,49,0.00,,,0.00,weatherlink.com 1.10,2013-08-02 22:15:00,
2013-08-02 15:30:00,74.5,54.0,30.18,NW,323,4.0,6.0,49,0.00,,,0.00,weatherlink.com 1.10,2013-08-02 22:30:00,
2013-08-02 15:45:00,74.8,54.0,30.17,NE,51,1.0,8.0,49,0.00,,,0.00,weatherlink.com 1.10,2013-08-02 22:45:00,
2013-08-02 16:00:00,74.9,54.0,30.17,North,358,1.0,7.0,49,0.00,,,0.00,weatherlink.com 1.10,2013-08-02 23:00:00,
2013-08-02 16:15:00,75.2,55.0,30.17,NNW,332,4.0,7.0,49,0.00,,,0.00,weatherlink.com 1.10,2013-08-02 23:15:00,
2013-08-02 16:30:00,74.7,55.0,30.16,WNW,298,1.0,5.0,50,0.00,,,0.00,weatherlink.com 1.10,2013-08-02 23:30:00,
2013-08-02 16:46:00,74.3,54.0,30.16,WNW,288,1.0,6.0,50,0.00,,,0.00,weatherlink.com 1.10,2013-08-02 23:46:00,
2013-08-02 17:01:00,75.4,54.0,30.16,ENE,57,4.0,7.0,48,0.00,,,0.00,weatherlink.com 1.10,2013-08-03 00:01:00,
2013-08-02 17:16:00,75.4,55.0,30.16,NW,315,4.0,8.0,49,0.00,,,0.00,weatherlink.com 1.10,2013-08-03 00:16:00,
2013-08-02 17:31:00,75.4,55.0,30.15,NW,324,6.0,7.0,50,0.00,,,0.00,weatherlink.com 1.10,2013-08-03 00:31:00,
2013-08-02 17:46:00,75.5,55.0,30.16,North,4,6.0,7.0,50,0.00,,,0.00,weatherlink.com 1.10,2013-08-03 00:46:00,
2013-08-02 18:01:00,74.8,55.0,30.15,NNW,345,1.0,9.0,51,0.00,,,0.00,weatherlink.com 1.10,2013-08-03 01:01:00,
2013-08-02 18:16:00,73.9,56.0,30.16,WNW,300,3.0,7.0,54,0.00,,,0.00,weatherlink.com 1.10,2013-08-03 01:16:00,
2013-08-02 18:31:00,71.9,56.0,30.16,NNE,19,1.0,9.0,57,0.00,,,0.00,weatherlink.com 1.10,2013-08-03 01:31:00,
2013-08-02 18:46:00,71.1,56.0,30.16,NW,326,2.0,8.0,59,0.00,,,0.00,weatherlink.com 1.10,2013-08-03 01:46:00,
2013-08-02 19:01:00,71.9,56.0,30.15,NW,316,3.0,7.0,58,0.00,,,0.00,weatherlink.com 1.10,2013-08-03 02:01:00,
2013-08-02 19:16:00,71.4,56.0,30.16,NW,318,3.0,6.0,59,0.00,,,0.00,weatherlink.com 1.10,2013-08-03 02:16:00,
2013-08-02 19:31:00,70.7,56.0,30.16,NW,307,2.0,6.0,60,0.00,,,0.00,weatherlink.com 1.10,2013-08-03 02:31:00,
2013-08-02 19:46:00,69.6,56.0,30.16,NW,323,2.0,5.0,63,0.00,,,0.00,weatherlink.com 1.10,2013-08-03 02:46:00,
2013-08-02 20:01:00,68.8,56.0,30.16,NNW,334,2.0,6.0,65,0.00,,,0.00,weatherlink.com 1.10,2013-08-03 03:01:00,
2013-08-02 20:16:00,68.1,56.0,30.16,NW,317,5.0,7.0,66,0.00,,,0.00,weatherlink.com 1.10,2013-08-03 03:16:00,
2013-08-02 20:31:00,67.5,56.0,30.16,NW,315,1.0,3.0,67,0.00,,,0.00,weatherlink.com 1.10,2013-08-03 03:31:00,
2013-08-02 20:46:00,66.9,56.0,30.16,NW,309,0.0,5.0,68,0.00,,,0.00,weatherlink.com 1.10,2013-08-03 03:46:00,
2013-08-02 21:01:00,66.4,56.0,30.16,NNE,31,3.0,4.0,69,0.00,,,0.00,weatherlink.com 1.10,2013-08-03 04:01:00,
2013-08-02 21:16:00,65.7,56.0,30.16,WNW,285,0.0,2.0,71,0.00,,,0.00,weatherlink.com 1.10,2013-08-03 04:16:00,
2013-08-02 21:31:00,65.3,56.0,30.17,West,262,0.0,3.0,72,0.00,,,0.00,weatherlink.com 1.10,2013-08-03 04:31:00,
2013-08-02 21:46:00,65.0,56.0,30.17,NW,320,0.0,3.0,73,0.00,,,0.00,weatherlink.com 1.10,2013-08-03 04:46:00,
2013-08-02 22:01:00,64.4,56.0,30.16,NW,322,1.0,2.0,74,0.00,,,0.00,weatherlink.com 1.10,2013-08-03 05:01:00,
2013-08-02 22:16:00,63.7,56.0,30.16,NNW,340,0.0,1.0,76,0.00,,,0.00,weatherlink.com 1.10,2013-08-03 05:16:00,
2013-08-02 22:31:00,63.2,56.0,30.16,NW,318,1.0,2.0,77,0.00,,,0.00,weatherlink.com 1.10,2013-08-03 05:31:00,
2013-08-02 22:46:00,62.6,56.0,30.16,NW,321,1.0,3.0,78,0.00,,,0.00,weatherlink.com 1.10,2013-08-03 05:46:00,
2013-08-02 23:01:00,61.9,56.0,30.17,NW,321,0.0,3.0,80,0.00,,,0.00,weatherlink.com 1.10,2013-08-03 06:01:00,
2013-08-02 23:16:00,61.4,56.0,30.17,NW,305,0.0,2.0,81,0.00,,,0.00,weatherlink.com 1.10,2013-08-03 06:16:00,
2013-08-02 23:31:00,60.6,55.0,30.16,NE,38,0.0,1.0,83,0.00,,,0.00,weatherlink.com 1.10,2013-08-03 06:31:00,
2013-08-02 23:46:00,59.6,55.0,30.16,NNW,341,0.0,1.0,84,0.00,,,0.00,weatherlink.com 1.10,2013-08-03 06:46:00,